Melfa, VA

11:48 AM EDT on May 24, 2017 (GMT -0400)
Accomack County

Weather History for KMFV - October, 2011

Change the Weather History Date:

Thursday, October 6, 2011

  Actual Average (KWAL) Record (KWAL)
Temperature  
Mean Temperature 60 °F -  
Max Temperature 69 °F 69 °F 89 °F (1997)
Min Temperature 51 °F 52 °F 41 °F (1999)
Degree Days  
Heating Degree Days 5    
Growing Degree Days 10 (Base 50)    
Moisture  
Dew Point 51 °F    
Average Humidity 71    
Maximum Humidity 94    
Minimum Humidity 52    
Precipitation  
Precipitation 0.00 in - - ()
Sea Level Pressure  
Sea Level Pressure 30.32 in    
Wind  
Wind Speed 5 mph (NE)    
Max Wind Speed 13 mph    
Max Gust Speed 10 mph    
Visibility 10 miles    
Events      
Averages and records for this station are not official NWS values.
T = Trace of Precipitation, MM = Missing Value Source: NWS Daily Summary

Daily Weather History Graph

Daily Weather History Graph

Search for Another Location

Airport or City:

Trip Planner

Search our weather history database for the weather conditions in past years. The results will help you decide how hot, cold, wet, or windy it might be!

Date:

Astronomy

Oct. 06, 2011 Rise Set
Actual Time 7:02 AM EDT 6:39 PM EDT
Civil Twilight 6:36 AM EDT 7:05 PM EDT
Nautical Twilight 6:06 AM EDT 7:35 PM EDT
Astronomical Twilight 5:35 AM EDT 8:05 PM EDT
Moon 3:46 PM EDT (10/6) 1:54 AM EDT (10/6)
Length of Visible Light 12h 28m
Length of Day
11h 36m
Waxing Gibbous, 75% of the Moon is Illuminated
Oct 6
Waxing Gibbous
Oct 11
Full
Oct 19
Last Quarter
Oct 26
New
Nov 2
First Quarter

Hourly Weather History & Observations

Time (EDT) Temp. Dew Point Humidity Pressure Visibility Wind Dir Wind Speed Gust Speed Precip Events Conditions
12:15 AM 55.4 °F 53.6 °F 94% 30.24 in 10.0 mi North 3.5 mph - N/A   Unknown
12:35 AM 55.4 °F 53.6 °F 94% 30.24 in 10.0 mi North 6.9 mph - N/A   Unknown
1:15 AM 60.8 °F 51.8 °F 72% 30.26 in 10.0 mi NNE 5.8 mph - N/A   Unknown
1:35 AM 60.8 °F 51.8 °F 72% 30.26 in 10.0 mi NNE 5.8 mph - N/A   Unknown
2:15 AM 60.8 °F 51.8 °F 72% 30.27 in 10.0 mi NNE 6.9 mph - N/A   Unknown
2:35 AM 60.8 °F 51.8 °F 72% 30.27 in 10.0 mi NNE 4.6 mph - N/A   Unknown
2:55 AM 59.0 °F 51.8 °F 77% 30.27 in 10.0 mi NNE 6.9 mph - N/A   Unknown
3:15 AM 57.2 °F 50.0 °F 77% 30.26 in 10.0 mi NE 5.8 mph - N/A   Unknown
3:35 AM 57.2 °F 50.0 °F 77% 30.26 in 10.0 mi NNE 5.8 mph - N/A   Unknown
3:55 AM 57.2 °F 50.0 °F 77% 30.26 in 10.0 mi NNE 3.5 mph - N/A   Unknown
4:15 AM 55.4 °F 50.0 °F 82% 30.27 in 10.0 mi NNE 4.6 mph - N/A   Unknown
4:35 AM 55.4 °F 50.0 °F 82% 30.27 in 10.0 mi North 4.6 mph - N/A   Unknown
4:55 AM 53.6 °F 50.0 °F 88% 30.28 in 10.0 mi NNE 4.6 mph - N/A   Unknown
5:15 AM 53.6 °F 50.0 °F 88% 30.28 in 10.0 mi North 4.6 mph - N/A   Unknown
5:35 AM 53.6 °F 50.0 °F 88% 30.29 in 10.0 mi NNE 5.8 mph - N/A   Unknown
5:55 AM 53.6 °F 50.0 °F 88% 30.29 in 10.0 mi NNE 4.6 mph - N/A   Unknown
6:15 AM 53.6 °F 48.2 °F 82% 30.29 in 10.0 mi NNE 4.6 mph - N/A   Unknown
6:35 AM 53.6 °F 48.2 °F 82% 30.30 in 10.0 mi North 5.8 mph - N/A   Unknown
6:55 AM 53.6 °F 48.2 °F 82% 30.31 in 10.0 mi NNE 3.5 mph - N/A   Unknown
7:15 AM 51.8 °F 48.2 °F 88% 30.31 in 10.0 mi NNE 3.5 mph - N/A   Unknown
7:35 AM 53.6 °F 48.2 °F 82% 30.33 in 10.0 mi NNE 3.5 mph - N/A   Unknown
7:55 AM 53.6 °F 50.0 °F 88% 30.33 in 10.0 mi NE 4.6 mph - N/A   Unknown
8:15 AM 55.4 °F 51.8 °F 88% 30.34 in 10.0 mi NE 4.6 mph - N/A   Unknown
8:35 AM 57.2 °F 51.8 °F 82% 30.34 in 10.0 mi NE 5.8 mph - N/A   Unknown
8:55 AM 60.8 °F 53.6 °F 77% 30.35 in 10.0 mi NE 6.9 mph - N/A   Unknown
9:15 AM 62.6 °F 53.6 °F 72% 30.35 in 10.0 mi NE 5.8 mph - N/A   Unknown
9:55 AM 66.2 °F 53.6 °F 64% 30.36 in 10.0 mi ENE 9.2 mph - N/A   Unknown
10:15 AM 66.2 °F 51.8 °F 60% 30.37 in 10.0 mi ENE 9.2 mph - N/A   Unknown
10:35 AM 68.0 °F 53.6 °F 60% 30.37 in 10.0 mi ENE 10.4 mph - N/A   Unknown
10:55 AM 68.0 °F 51.8 °F 56% 30.37 in 10.0 mi ENE 10.4 mph - N/A   Unknown
11:35 AM 68.0 °F 51.8 °F 56% 30.37 in 10.0 mi East 9.2 mph - N/A   Unknown
11:55 AM 68.0 °F 51.8 °F 56% 30.38 in 10.0 mi NE 8.1 mph - N/A   Unknown
12:15 PM 68.0 °F 51.8 °F 56% 30.37 in 10.0 mi NE 6.9 mph 10.4 mph N/A   Unknown
12:35 PM 69.8 °F 51.8 °F 53% 30.37 in 10.0 mi East 9.2 mph - N/A   Unknown
12:55 PM 69.8 °F 51.8 °F 53% 30.37 in 10.0 mi East 12.7 mph - N/A   Unknown
1:15 PM 69.8 °F 51.8 °F 53% 30.37 in 10.0 mi SE 5.8 mph - N/A   Unknown
1:35 PM 69.8 °F 51.8 °F 53% 30.36 in 10.0 mi East 8.1 mph - N/A   Unknown
1:55 PM 69.8 °F 51.8 °F 53% 30.35 in 10.0 mi East 8.1 mph - N/A   Unknown
2:15 PM 69.8 °F 51.8 °F 53% 30.35 in 10.0 mi NE 6.9 mph - N/A   Unknown
2:35 PM 69.8 °F 51.8 °F 53% 30.35 in 10.0 mi East 6.9 mph - N/A   Unknown
2:55 PM 69.8 °F 51.8 °F 53% 30.34 in 10.0 mi East 3.5 mph - N/A   Unknown
3:15 PM 69.8 °F 51.8 °F 53% 30.34 in 10.0 mi East 4.6 mph - N/A   Unknown
3:35 PM 68.0 °F 51.8 °F 56% 30.34 in 10.0 mi East 5.8 mph - N/A   Unknown
3:55 PM 68.0 °F 50.0 °F 52% 30.34 in 10.0 mi ESE 4.6 mph - N/A   Unknown
4:35 PM 66.2 °F 51.8 °F 60% 30.34 in 10.0 mi Calm Calm - N/A   Unknown
4:55 PM 66.2 °F 50.0 °F 56% 30.34 in 10.0 mi Calm Calm - N/A   Unknown
5:15 PM 66.2 °F 50.0 °F 56% 30.34 in 10.0 mi Calm Calm - N/A   Unknown
5:35 PM 66.2 °F 51.8 °F 60% 30.34 in 10.0 mi Calm Calm - N/A   Unknown
5:55 PM 64.4 °F 51.8 °F 64% 30.34 in 10.0 mi Calm Calm - N/A   Unknown
6:15 PM 62.6 °F 51.8 °F 68% 30.34 in 10.0 mi Calm Calm - N/A   Unknown
6:35 PM 59.0 °F 53.6 °F 82% 30.34 in 10.0 mi Calm Calm - N/A   Unknown
6:55 PM 57.2 °F 51.8 °F 82% 30.35 in 10.0 mi Calm Calm - N/A   Unknown
7:15 PM 55.4 °F 51.8 °F 88% 30.35 in 10.0 mi Calm Calm - N/A   Unknown
7:35 PM 55.4 °F 51.8 °F 88% 30.36 in 10.0 mi Calm Calm - N/A   Unknown
7:55 PM 53.6 °F 51.8 °F 94% 30.36 in 10.0 mi Calm Calm - N/A   Unknown
8:15 PM 53.6 °F 50.0 °F 88% 30.37 in 10.0 mi Calm Calm - N/A   Unknown
8:35 PM 53.6 °F 50.0 °F 88% 30.37 in 10.0 mi Calm Calm - N/A   Unknown
8:55 PM 51.8 °F 50.0 °F 94% 30.37 in 10.0 mi Calm Calm - N/A   Unknown
9:15 PM 51.8 °F 48.2 °F 88% 30.37 in 10.0 mi Calm Calm - N/A   Unknown
9:35 PM 51.8 °F 48.2 °F 88% 30.37 in 10.0 mi Calm Calm - N/A   Unknown
10:15 PM 50.0 °F 48.2 °F 94% 30.37 in 10.0 mi Calm Calm - N/A   Unknown
10:35 PM 50.0 °F 48.2 °F 94% 30.37 in 10.0 mi Calm Calm - N/A   Unknown
10:55 PM 48.2 °F 46.4 °F 93% 30.38 in 10.0 mi Calm Calm - N/A   Unknown
11:15 PM 48.2 °F 46.4 °F 93% 30.38 in 10.0 mi Calm Calm - N/A   Unknown
11:35 PM 48.2 °F 46.4 °F 93% 30.37 in 10.0 mi Calm Calm - N/A   Unknown
11:55 PM 48.2 °F 46.4 °F 93% 30.38 in 10.0 mi Calm Calm - N/A   Unknown